[[{"header":{"parameterUnit":"m.s-1","parameterCategory":1,"la1":30.2991,"la2":30.254,"lo1":-89.0895,"lo2":-89.0444,"dy":0.0017,"dx":0.0017,"nx":28,"ny":28,"refTime":"2023-08-16T03:00:00:Z","depth":0,"parameterNumber":2,"parameterNumberName":"U-component_of_WINDS"},"data":[0,0,0,0,0,0,0,0,0,0,0,0,0,0,0,0,0,0,0,0,0,0,0,0,0,0,0,0,0,0,0,0,0,0,0,0,0,0,0,0,0,0,0,0,0,0,0,0,0,0,0,0,0,0,0,0,0,0,0.7333,0.7334,0,0.7428,0.7429,0.743,0.7486,0.7486,0.7486,0.7486,0.7587,0.759,0.7592,0,0,0,0,0,0,0,0,0,0,0,0,0,0.7202,0.7204,0.7333,0.7334,0.7335,0.7428,0.7429,0.743,0.7486,0.7486,0.7486,0.7486,0.7587,0.759,0.7593,0,0,0,0,0,0,0,0,0,0,0,0,0,0.7274,0.7205,0.7332,0.7374,0.7378,0.7428,0.7429,0.7431,0.7486,0.7486,0.7486,0.7487,0.7586,0.7589,0.7593,0.761,0,0,0.7604,0.7606,0,0,0,0,0,0,0,0,0.727,0.7279,0.7366,0.7371,0.7376,0.7445,0.742,0.7491,0.7486,0.7445,0.7486,0.7487,0.754,0.7548,0.7565,0.7614,0.7619,0.7605,0.7607,0.7609,0.761,0,0,0,0,0,0,0,0.7265,0.7275,0.7371,0.7368,0.7374,0.7389,0.7399,0.7434,0.749,0.7449,0.7453,0.7463,0.7543,0.7561,0.7568,0.762,0.7605,0.7608,0.761,0.7612,0.769,0.769,0,0,0,0,0,0,0.7253,0.7271,0.7367,0.7373,0.7323,0.7391,0.7403,0.7423,0.7489,0.75,0.7463,0.7465,0.7555,0.7563,0.7571,0.7597,0.7609,0.7612,0.7614,0.769,0.769,0.769,0,0,0,0,0,0,0.725,0.7261,0.7364,0.7323,0.7337,0.7393,0.7415,0.7425,0.7443,0.75,0.7511,0.7471,0.7555,0.7566,0.76,0.7601,0.7614,0.7617,0.769,0.769,0.769,0.7646,0,0,0,0,0,0,0.7246,0.726,0.7266,0.7323,0.7339,0.7389,0.7415,0.7426,0.7449,0.7453,0.7511,0.7521,0.7556,0.7594,0.7604,0.7606,0.762,0.769,0.769,0.769,0.7647,0.7644,0.7641,0,0,0,0,0,0.7241,0.725,0.7266,0.7277,0.7348,0.7389,0.7399,0.7438,0.7448,0.7456,0.7493,0.7519,0.7599,0.7597,0.7608,0.7612,0.7691,0.769,0.769,0.7649,0.7645,0.7641,0,0,0,0,0,0,0.7192,0.7258,0.7276,0.7303,0.734,0.7398,0.7408,0.7433,0.7468,0.7471,0.752,0.7533,0.7562,0.759,0.7587,0.7632,0.7648,0.765,0.7613,0.7609,0.7606,0.7599,0.7623,0,0,0,0,0,0.7184,0.7211,0.7268,0.7286,0.7304,0.7353,0.7372,0.74,0.744,0.7456,0.7496,0.7535,0.7569,0.7591,0.7625,0.7651,0.7666,0.766,0.7656,0.7654,0.7655,0.7672,0.7671,0.7688,0.7688,0.7688,0,0,0.7169,0.7208,0.7222,0.7278,0.7309,0.7337,0.7365,0.7394,0.7415,0.7461,0.7495,0.7525,0.7573,0.7603,0.7618,0.7627,0.7653,0.7653,0.765,0.7654,0.7672,0.767,0.7669,0.7688,0.7688,0.7688,0,0,0.7155,0.7187,0.7206,0.7237,0.7284,0.7317,0.7322,0.7376,0.7398,0.7433,0.7468,0.7495,0.7552,0.7585,0.7609,0.7608,0.7634,0.7618,0.7602,0.7618,0.7617,0.7616,0.7617,0.7616,0.7619,0.7619,0.7619,0,0.713,0.7172,0.7213,0.724,0.7264,0.7305,0.7326,0.7355,0.7411,0.7427,0.7437,0.751,0.7545,0.7584,0.7584,0.7601,0.7609,0.7612,0.7613,0.7613,0.7613,0.7614,0.7614,0.7616,0.7617,0.7617,0.7617,0,0.714,0.7169,0.7179,0.7232,0.7257,0.728,0.7326,0.7347,0.7373,0.7405,0.744,0.7483,0.7528,0.7539,0.7564,0.7582,0.7586,0.7604,0.762,0.7608,0.761,0.7611,0.7613,0.7614,0.7615,0.7615,0,0,0.7098,0.7173,0.7176,0.7201,0.7257,0.7281,0.7306,0.7349,0.7366,0.7404,0.7428,0.7476,0.7493,0.752,0.7549,0.7563,0.7561,0.758,0.7582,0.7576,0.7585,0.7572,0.7572,0.7578,0.7579,0.7579,0.7581,0,0.7093,0.7141,0.7179,0.7213,0.7241,0.7281,0.7304,0.7341,0.7372,0.7401,0.7436,0.7469,0.7488,0.7505,0.752,0.7558,0.7564,0.7558,0.7603,0.7604,0.759,0.7573,0.7559,0.7559,0.7582,0.7582,0.7583,0,0.7093,0.7129,0.7165,0.7219,0.7232,0.7252,0.7294,0.7321,0.7365,0.7386,0.7417,0.7447,0.7478,0.7491,0.7535,0.753,0.7551,0.7572,0.7573,0.758,0.7593,0.758,0.756,0.7561,0.7584,0.7584,0.7584,0,0.7061,0.7117,0.7147,0.7167,0.7229,0.7243,0.727,0.7313,0.7337,0.7374,0.739,0.7431,0.7454,0.7485,0.7527,0.7532,0.7567,0.7583,0.7587,0.7586,0.7593,0.7592,0.7577,0.7604,0.7604,0.7604,0.7604,0,0.7051,0.7072,0.7133,0.7151,0.7176,0.7221,0.7245,0.7275,0.7314,0.734,0.7377,0.7401,0.7454,0.7484,0.7517,0.7549,0.7559,0.7578,0.7587,0.7575,0.7573,0.759,0.7591,0.7604,0.7604,0.7604,0.7604,0,0.7019,0.706,0.7095,0.7152,0.7166,0.7183,0.7232,0.7252,0.7284,0.7317,0.7327,0.7379,0.7417,0.7461,0.7513,0.7535,0.7565,0.7577,0.755,0.7555,0.7557,0.7556,0.7553,0.7556,0.758,0.7579,0.7579,0,0.7011,0.7028,0.7086,0.7106,0.7131,0.7162,0.7186,0.7231,0.7255,0.7306,0.732,0.736,0.7395,0.7454,0.7497,0.7538,0.7552,0.7548,0.7559,0.7547,0.7553,0.7552,0.7555,0.7546,0.7545,0.7545,0.7544,0,0.6993,0.7012,0.7045,0.7085,0.7112,0.7146,0.7182,0.7196,0.7248,0.7273,0.7311,0.7338,0.7392,0.7432,0.7478,0.7508,0.7535,0.7541,0.7544,0.7533,0.7517,0.7527,0.7543,0.7541,0.7541,0.7541,0.7542,0.7542,0.6973,0.6991,0.7034,0.707,0.7101,0.7133,0.7155,0.719,0.7223,0.727,0.7294,0.7333,0.7377,0.7442,0.747,0.7502,0.7511,0.7516,0.7517,0.7518,0.7515,0.7511,0.751,0.751,0.7511,0.7511,0.7511,0,0.6958,0.6988,0.702,0.7068,0.7096,0.7119,0.7159,0.7182,0.7215,0.7253,0.7287,0.7332,0.7371,0.7417,0.746,0.7477,0.749,0.7486,0.7486,0.7493,0.7503,0.7497,0.7475,0.7475,0.7475,0.7475,0.7475,0.7475,0.6953,0.6984,0.7009,0.7056,0.7087,0.7124,0.7145,0.7176,0.7207,0.7256,0.7288,0.7318,0.736,0.7406,0.7443,0.7456,0.7471,0.7463,0.7479,0.7489,0.7492,0.7495,0.7489,0.7465,0.7465,0.7466,0.7466,0.7466]},{"header":{"parameterUnit":"m.s-1","parameterCategory":1,"la1":30.2991,"la2":30.254,"lo1":-89.0895,"lo2":-89.0444,"dy":0.0017,"dx":0.0017,"nx":28,"ny":28,"refTime":"2023-08-16T03:00:00:Z","depth":0,"parameterNumber":3,"parameterNumberName":"V-component_of_WINDS"},"data":[0,0,0,0,0,0,0,0,0,0,0,0,0,0,0,0,0,0,0,0,0,0,0,0,0,0,0,0,0,0,0,0,0,0,0,0,0,0,0,0,0,0,0,0,0,0,0,0,0,0,0,0,0,0,0,0,0,0,2.968,2.968,0,2.9645,2.9645,2.9645,2.9641,2.9641,2.9642,2.9642,2.9602,2.96,2.9599,0,0,0,0,0,0,0,0,0,0,0,0,0,2.9738,2.9737,2.968,2.968,2.9679,2.9645,2.9645,2.9644,2.9641,2.9641,2.9642,2.9642,2.9602,2.9601,2.9599,0,0,0,0,0,0,0,0,0,0,0,0,0,2.9709,2.9737,2.968,2.9674,2.9673,2.9646,2.9645,2.9644,2.9641,2.9641,2.9642,2.9642,2.9603,2.9601,2.9599,2.9574,0,0,2.9592,2.9591,0,0,0,0,0,0,0,0,2.9711,2.9707,2.9675,2.9674,2.9673,2.9648,2.9651,2.9621,2.9641,2.9653,2.9642,2.9643,2.9616,2.9613,2.9605,2.9573,2.9571,2.9592,2.9591,2.959,2.9589,0,0,0,0,0,0,0,2.9713,2.9708,2.9666,2.9674,2.9673,2.9671,2.9667,2.9645,2.9632,2.9652,2.9651,2.9648,2.9616,2.9607,2.9604,2.957,2.9592,2.959,2.9589,2.9588,2.9514,2.9513,0,0,0,0,0,0,2.9717,2.971,2.9667,2.9665,2.9694,2.9669,2.9665,2.9655,2.9632,2.9629,2.9647,2.9648,2.9611,2.9607,2.9603,2.9572,2.959,2.9588,2.9587,2.9515,2.9514,2.9513,0,0,0,0,0,0,2.9718,2.9713,2.9669,2.9688,2.9682,2.9668,2.9657,2.9654,2.9646,2.9629,2.9626,2.9641,2.9611,2.9606,2.9581,2.9571,2.9587,2.9585,2.9515,2.9514,2.9513,2.9511,0,0,0,0,0,0,2.972,2.9713,2.9705,2.9687,2.9681,2.9649,2.9656,2.9653,2.9643,2.9643,2.9622,2.9619,2.9611,2.9585,2.9579,2.9568,2.9583,2.9516,2.9515,2.9514,2.9512,2.951,2.9508,0,0,0,0,0,2.9722,2.9705,2.9705,2.97,2.9671,2.9649,2.9645,2.9637,2.9642,2.9633,2.9622,2.962,2.9573,2.9582,2.9576,2.9564,2.9517,2.9515,2.9514,2.9512,2.951,2.9508,0,0,0,0,0,0,2.9721,2.9703,2.9702,2.968,2.9666,2.9648,2.9637,2.9635,2.9618,2.9619,2.9609,2.9604,2.958,2.9569,2.958,2.9538,2.9545,2.9542,2.9546,2.9544,2.9542,2.9544,2.9581,0,0,0,0,0,2.9718,2.9704,2.9688,2.967,2.9663,2.9651,2.9641,2.9637,2.9621,2.9615,2.9602,2.9586,2.9567,2.9555,2.9537,2.951,2.9505,2.9499,2.9497,2.9496,2.9493,2.9476,2.9473,2.9508,2.9508,2.9508,0,0,2.9712,2.9701,2.9692,2.9669,2.9658,2.9641,2.9646,2.9629,2.9616,2.9612,2.9588,2.9578,2.9559,2.9533,2.9521,2.9524,2.9482,2.9494,2.9493,2.9491,2.9475,2.9471,2.9468,2.9507,2.9507,2.9507,0,0,2.9693,2.9683,2.9666,2.9655,2.9639,2.9631,2.9627,2.9609,2.9603,2.9579,2.9575,2.9559,2.9528,2.9514,2.9503,2.9477,2.9475,2.9472,2.9462,2.9446,2.9443,2.9441,2.943,2.9427,2.9469,2.9469,2.9469,0,2.9687,2.9664,2.9657,2.964,2.9629,2.9627,2.9608,2.9597,2.9575,2.9567,2.9571,2.9531,2.9518,2.9488,2.9482,2.9473,2.9467,2.9474,2.9444,2.9442,2.9439,2.9429,2.9425,2.9469,2.9469,2.9469,2.9469,0,2.9657,2.964,2.9628,2.9608,2.9596,2.9579,2.9568,2.9556,2.9553,2.9544,2.9519,2.9503,2.9481,2.9474,2.947,2.9443,2.9445,2.9447,2.9453,2.9436,2.9426,2.9422,2.9468,2.9469,2.9469,2.9469,0,0,2.9635,2.9612,2.9608,2.9598,2.958,2.9566,2.9547,2.9528,2.9517,2.9501,2.9484,2.9458,2.9459,2.9446,2.944,2.9426,2.9405,2.9429,2.9429,2.9424,2.9373,2.9372,2.9367,2.9404,2.9403,2.9402,2.9375,0,2.9613,2.9582,2.9575,2.9547,2.9531,2.9528,2.9511,2.9497,2.9488,2.9471,2.946,2.9441,2.9445,2.9437,2.9424,2.9411,2.9395,2.9413,2.9386,2.9385,2.939,2.9363,2.9361,2.9335,2.9371,2.937,2.937,0,2.9583,2.9568,2.9539,2.9521,2.9514,2.95,2.948,2.9466,2.9448,2.9442,2.9428,2.9423,2.9402,2.941,2.9379,2.9391,2.9379,2.9371,2.937,2.9366,2.9376,2.9357,2.9327,2.9323,2.9364,2.9364,2.9365,0,2.9569,2.9541,2.952,2.9512,2.9492,2.9481,2.9472,2.9456,2.9444,2.9426,2.9418,2.9398,2.9386,2.937,2.9359,2.9366,2.9328,2.9335,2.9321,2.9321,2.9312,2.9313,2.9279,2.9306,2.9307,2.9307,2.9307,0,2.9544,2.9526,2.9514,2.95,2.9479,2.9471,2.945,2.944,2.9426,2.9409,2.9405,2.9389,2.9376,2.9357,2.9348,2.9323,2.9318,2.9311,2.9309,2.9311,2.9312,2.9303,2.9304,2.9306,2.9306,2.9306,2.9306,0,2.9525,2.9516,2.9492,2.9475,2.947,2.9455,2.944,2.9426,2.9417,2.9395,2.939,2.9375,2.9353,2.9341,2.9313,2.9307,2.9278,2.9277,2.9284,2.9283,2.9269,2.927,2.9227,2.922,2.9253,2.9253,2.9253,0,2.9509,2.9495,2.9477,2.9466,2.9457,2.944,2.9428,2.9419,2.9407,2.9386,2.9374,2.9352,2.9334,2.9299,2.9284,2.9262,2.926,2.9246,2.9256,2.9259,2.9258,2.9259,2.9256,2.9244,2.9244,2.9244,2.9243,0,2.9482,2.9478,2.9462,2.9445,2.9431,2.9416,2.9401,2.9392,2.938,2.9366,2.9345,2.9331,2.9303,2.928,2.9257,2.9245,2.9241,2.9241,2.9236,2.9238,2.9242,2.9238,2.9278,2.9241,2.9242,2.9242,2.9242,2.9242,2.9463,2.945,2.9435,2.9417,2.9406,2.9392,2.9377,2.9367,2.9349,2.9327,2.9322,2.9299,2.928,2.9249,2.9237,2.9217,2.9219,2.9213,2.9211,2.9209,2.9208,2.9246,2.9213,2.9213,2.9213,2.9213,2.9213,0,2.9435,2.9425,2.9409,2.9389,2.9374,2.9374,2.9357,2.9344,2.9324,2.9308,2.9291,2.9265,2.9243,2.9227,2.9204,2.9191,2.9189,2.9186,2.9186,2.9183,2.9208,2.9214,2.9188,2.9188,2.9188,2.9188,2.9188,2.9188,2.9418,2.9396,2.9391,2.9362,2.9352,2.933,2.932,2.9307,2.9294,2.9266,2.9249,2.9239,2.9222,2.9198,2.9177,2.9172,2.9163,2.916,2.9155,2.9179,2.9181,2.9184,2.9189,2.9158,2.9158,2.9131,2.9131,2.9131]}]]